KC8TAI Weather Reports


time (UTC)temp
F
wind
direction
speed
knots
gust
knots
rain 1hr
in
rain 24hr
in
rain mn
in
humidity
%
barometer
mb
20260510033515 46 41 0.0 1.7 0.00 0.15 0.15 96 1011.7
20260510032515 46 30 0.0 0.9 0.00 0.15 0.15 96 1011.6
20260510031535 46 0.0 0.0 0.00 0.15 0.15 96 1011.6
20260510030516 47 343 0.0 0.9 0.00 0.15 0.15 95 1011.5
20260510025516 47 0.0 0.0 0.00 0.15 0.15 95 1011.5
20260510024516 47 0.0 0.0 0.00 0.15 0.15 95 1011.5
20260510023516 48 0.0 0.0 0.00 0.15 0.15 95 1011.5
20260510022536 48 61 0.0 0.9 0.00 0.15 0.15 94 1011.3
20260510021516 48 301 0.0 0.9 0.00 0.15 0.15 94 1011.2
20260510020517 49 0.0 0.0 0.00 0.15 0.15 94 1011.1
20260510015537 49 0.0 0.0 0.00 0.15 0.15 93 1011.0
20260510014517 50 0.0 0.0 0.00 0.15 0.15 92 1011.0
20260510013517 50 0.0 0.0 0.00 0.15 0.15 91 1010.9
20260510012517 51 0.0 0.0 0.00 0.15 0.15 90 1010.8
20260510011541 52 0.0 0.0 0.00 0.15 0.15 89 1010.7
20260510010518 53 0.0 0.0 0.00 0.15 0.15 87 1010.6
20260510005518 54 0.0 0.0 0.00 0.15 0.15 85 1010.6
20260510004518 55 0.0 0.0 0.00 0.15 0.15 82 1010.5
20260510003515 57 246 0.9 1.7 0.00 0.15 0.15 79 1010.2
20260510002516 58 255 2.6 3.5 0.00 0.15 0.15 76 1009.9
20260510001516 60 260 1.7 3.5 0.00 0.15 0.15 72 1009.8
20260510000516 61 229 2.6 4.3 0.00 0.15 0.15 69 1009.6
20260509235516 62 232 3.5 6.1 0.00 0.15 0.15 68 1009.5
20260509234516 62 218 3.5 6.1 0.00 0.15 0.15 66 1009.4
20260509233517 63 209 5.2 8.7 0.00 0.15 0.15 65 1009.3
20260509232516 63 217 4.3 7.0 0.00 0.15 0.15 63 1009.3
20260509231517 63 218 4.3 6.1 0.00 0.15 0.15 65 1009.3
20260509230518 63 233 5.2 9.6 0.00 0.15 0.15 64 1009.3
20260509225517 63 232 4.3 7.0 0.00 0.15 0.15 65 1009.5
20260509224537 63 227 5.2 8.7 0.00 0.15 0.15 64 1009.6
20260509223518 63 221 6.1 7.8 0.00 0.15 0.15 64 1009.6
20260509222518 64 226 6.1 8.7 0.00 0.15 0.15 64 1009.6
20260509221518 65 201 6.1 7.8 0.00 0.15 0.15 64 1009.5
20260509220515 65 213 6.1 8.7 0.00 0.15 0.15 63 1009.4
20260509215515 65 216 5.2 7.8 0.00 0.15 0.15 63 1009.2
20260509214536 64 216 5.2 7.8 0.00 0.15 0.15 65 1009.6
20260509213536 65 216 6.1 8.7 0.00 0.15 0.15 64 1009.6
20260509212516 65 216 5.2 8.7 0.00 0.15 0.15 63 1009.3
20260509211519 64 223 6.1 8.7 0.00 0.15 0.15 64 1009.3
20260509210516 65 216 6.1 8.7 0.00 0.15 0.15 64 1009.5
20260509205516 65 222 7.0 10.4 0.00 0.15 0.15 63 1009.4
20260509204536 66 234 6.1 9.6 0.00 0.15 0.15 65 1009.4
20260509203516 65 224 4.3 7.8 0.00 0.15 0.15 64 1009.3
20260509202516 66 242 5.2 7.8 0.00 0.15 0.15 64 1009.3
20260509201517 64 226 3.5 7.0 0.00 0.15 0.15 66 1009.4
20260509200517 63 234 3.5 6.1 0.00 0.15 0.15 67 1009.8
20260509195517 63 251 3.5 8.7 0.00 0.15 0.15 68 1009.9
20260509194517 63 227 5.2 7.8 0.00 0.15 0.15 68 1009.9
20260509193518 62 227 3.5 7.0 0.00 0.15 0.15 69 1009.7
20260509192518 62 224 6.1 11.3 0.00 0.15 0.15 68 1010.0
20260509191518 62 216 5.2 7.8 0.00 0.15 0.15 68 1009.8
20260509190518 62 213 4.3 7.0 0.00 0.15 0.15 68 1009.9
20260509185518 60 231 3.5 5.2 0.00 0.15 0.15 70 1009.8
20260509184515 60 229 4.3 7.0 0.00 0.15 0.15 72 1009.9
20260509183516 59 232 0.9 3.5 0.00 0.15 0.15 76 1010.0
20260509182515 59 246 2.6 6.1 0.00 0.15 0.15 76 1010.2
20260509181522 59 225 1.7 5.2 0.00 0.15 0.15 77 1010.1
20260509180515 59 200 0.9 3.5 0.00 0.15 0.15 77 1010.0
20260509175516 58 189 0.0 2.6 0.00 0.15 0.15 78 1010.0
20260509174516 58 235 0.9 2.6 0.00 0.15 0.15 78 1010.2
20260509173516 57 190 0.9 2.6 0.00 0.15 0.15 80 1010.1
20260509172536 57 217 1.7 2.6 0.00 0.15 0.15 81 1010.4
20260509171516 57 237 0.0 2.6 0.00 0.15 0.15 82 1010.4
20260509170517 57 238 1.7 3.5 0.00 0.15 0.15 82 1010.3
20260509165517 56 216 2.6 5.2 0.00 0.15 0.15 83 1010.2
20260509164538 56 202 0.9 2.6 0.00 0.15 0.15 85 1010.3
20260509163517 55 151 0.0 1.7 0.00 0.15 0.15 87 1010.3
20260509162518 55 179 0.9 3.5 0.00 0.15 0.15 89 1010.4
20260509161528 55 158 0.0 1.7 0.01 0.15 0.15 88 1010.8
20260509160528 55 217 0.9 2.6 0.01 0.15 0.15 89 1010.8
20260509155528 55 206 0.9 2.6 0.01 0.15 0.15 88 1010.8
20260509154529 55 56 0.9 1.7 0.01 0.15 0.15 88 1010.6
20260509153529 54 222 0.9 2.6 0.01 0.15 0.15 88 1010.8
20260509152516 53 213 1.7 4.3 0.00 0.15 0.15 89 1011.1
20260509151516 53 208 0.9 2.6 0.00 0.14 0.14 90 1011.1
20260509150516 53 128 0.9 1.7 0.00 0.14 0.14 91 1011.1
20260509145516 53 123 0.0 0.9 0.00 0.14 0.14 92 1011.1
20260509144516 53 0.0 0.0 0.01 0.14 0.14 91 1011.0
20260509143516 53 0.0 0.0 0.01 0.14 0.14 90 1011.0
20260509142536 53 272 0.0 0.9 0.01 0.14 0.14 90 1011.0
20260509141517 53 0.0 0.0 0.01 0.14 0.14 91 1011.1
20260509140537 53 241 1.7 2.6 0.01 0.14 0.14 90 1011.1
20260509135517 53 226 0.0 1.7 0.01 0.14 0.14 92 1011.0
20260509134517 52 0.0 0.0 0.02 0.14 0.14 93 1010.8
20260509133537 52 136 0.0 0.9 0.03 0.13 0.13 95 1011.0
20260509132517 51 65 0.0 0.0 0.03 0.13 0.13 95 1011.1
20260509131518 51 0.0 0.0 0.04 0.13 0.13 96 1011.1
20260509130517 51 0.0 0.0 0.04 0.13 0.13 96 1011.2
20260509125538 50 0.0 0.0 0.05 0.13 0.13 96 1011.5
20260509124518 50 0.0 0.0 0.04 0.12 0.12 96 1011.6
20260509123518 50 0.0 0.0 0.04 0.11 0.11 96 1011.5
20260509122518 50 0.0 0.0 0.03 0.11 0.11 96 1011.6
20260509121518 50 199 0.0 0.0 0.03 0.10 0.10 96 1011.7
20260509120519 50 0.0 0.0 0.03 0.09 0.09 96 1011.5
20260509115519 50 0.0 0.0 0.03 0.08 0.08 96 1011.6
20260509114519 49 0.0 0.0 0.02 0.07 0.07 96 1011.7
20260509113519 49 224 0.0 1.7 0.02 0.07 0.07 96 1011.5
20260509112519 49 202 0.0 1.7 0.03 0.07 0.07 96 1011.4
20260509111540 49 50 0.0 0.9 0.02 0.06 0.06 96 1011.4
20260509110520 49 38 0.0 0.9 0.02 0.06 0.06 96 1011.4
20260509105520 49 0.0 0.0 0.02 0.05 0.05 96 1011.3
20260509104520 49 0.0 0.0 0.02 0.05 0.05 96 1011.4
20260509103521 49 0.0 0.0 0.01 0.05 0.05 95 1011.4
20260509102520 49 56 0.0 0.9 0.01 0.05 0.05 95 1011.3
20260509101521 49 70 0.9 1.7 0.01 0.04 0.04 95 1011.5
20260509100521 49 47 0.9 1.7 0.01 0.04 0.04 94 1011.6
20260509095521 49 52 0.9 2.6 0.03 0.04 0.04 94 1011.7
20260509094601 49 0.0 0.0 0.03 0.03 0.03 93 1011.8
20260509093521 49 52 0.0 1.7 0.03 0.03 0.03 92 1011.8
20260509092521 50 0.0 0.0 0.03 0.03 0.03 90 1011.9
20260509091542 50 234 0.0 1.7 0.03 0.03 0.03 89 1011.9
20260509090542 52 343 0.0 1.7 0.03 0.03 0.03 83 1011.7
20260509085519 53 231 4.3 7.8 0.01 0.01 0.01 78 1011.9
20260509084556 55 245 5.2 8.7 0.00 0.00 0.00 74 1011.8
20260509083520 55 238 5.2 7.8 0.00 0.00 0.00 72 1011.6
20260509082517 56 226 5.2 8.7 0.00 0.00 0.00 69 1011.3
20260509081538 55 223 6.1 8.7 0.00 0.00 0.00 68 1010.8
20260509080538 52 214 3.5 7.0 0.00 0.00 0.00 73 1010.7
20260509075518 48 59 0.9 4.3 0.00 0.00 0.00 94 1010.8
20260509074518 48 44 1.7 4.3 0.00 0.00 0.00 94 1010.8
20260509073518 47 267 0.0 2.6 0.00 0.00 0.00 94 1010.7
20260509072518 47 53 0.0 0.9 0.00 0.00 0.00 94 1010.6
20260509071518 48 0.0 0.0 0.00 0.00 0.00 93 1010.7
20260509070515 48 0.0 0.0 0.00 0.00 0.00 93 1010.6
20260509065515 48 0.0 0.0 0.00 0.00 0.00 93 1010.6
20260509064515 47 37 0.0 0.9 0.00 0.00 0.00 93 1010.6
20260509063516 48 0.0 0.0 0.00 0.00 0.00 93 1010.7
20260509062536 48 0.0 0.0 0.00 0.00 0.00 93 1010.7
20260509061516 48 47 0.0 1.7 0.00 0.00 0.00 92 1010.8
20260509060516 48 281 0.0 1.7 0.00 0.00 0.00 92 1011.0
20260509055517 48 31 0.0 0.9 0.00 0.00 0.00 91 1011.0
20260509054516 48 0.0 0.0 0.00 0.00 0.00 90 1011.3
20260509053517 49 0.0 0.0 0.00 0.00 0.00 90 1011.4
20260509052537 49 355 0.0 0.9 0.00 0.00 0.00 90 1011.4
20260509051517 49 265 0.0 1.7 0.00 0.00 0.00 90 1011.5
20260509050517 49 301 0.0 0.9 0.00 0.00 0.00 90 1011.7
20260509045517 49 0.0 0.0 0.00 0.00 0.00 89 1011.7
20260509044517 49 0.0 0.0 0.00 0.00 0.00 89 1011.8
20260509043538 50 0.0 0.0 0.00 0.00 0.00 89 1011.8
20260509042518 50 0.0 0.0 0.00 0.00 0.00 88 1011.9
20260509041518 50 0.0 0.0 0.00 0.00 0.00 87 1012.0
20260509040515 50 0.0 0.0 0.00 0.00 0.00 86 1011.9
20260509035515 50 0.0 0.0 0.00 0.00 0.00 86 1011.9
20260509034515 50 0.0 0.0 0.00 0.00 0.00 85 1011.9